Retour au catalogue

PEGASUS DEB

ActifPO
NORAD 24197·DEBRIS·🇺🇸 United States

Lancé May 19, 1994 depuis Vandenberg Space Force Base

Loading…

Prochains Passages (prochaines 24 heures)

TLE

FraisSource: Space-Track

Époque: Sep 14, 2026, 04:49 UTC

1 24197U 94029JY  26257.20071937  .00002594  00000-0  24452-3 0  9998
2 24197  82.0878 217.6006 0071877  18.9089  41.5991 14.91458568710014

Suivez PEGASUS DEB en temps réel avec AllMySat

Download on the App Store